Location: Gleizolles
(44.4833°N, 6.7667°E)
Time: 21:16:07
(UTC+00:00)

A-11 Canister half - Pass Details

Date: 25 June 2024
Orbit: 1524 x 1684 km, 47.3° (Epoch: 18 July)

Event Time Altitude Azimuth Distance (km) Brightness Sun altitude
Rises 08:28:31 0° 166° (SSE) 4,791 11.9 46.6°
Reaches altitude 10° 08:36:11 10° 127° (SE) 3,762 11.9 47.9°
Maximum altitude 08:37:05 10° 121° (ESE) 3,744 11.9 48.1°
Drops below altitude 10° 08:38:00 10° 116° (ESE) 3,752 12.0 48.2°
Sets 08:45:28 0° 77° (ENE) 4,703 12.1 49.5°
